TNO4272 MROC-KMIA

Flight info

Callsign TNO4272
Flight time N/A
Altitude 41000
Route NANJO3R RADON UB767 PZA UZ751 SELEK UL345 IKBIX SNDBR3
Aircraft A333/H-SDE3GHIJ2J3J5M1RVWXY/LB2D1

Departure

Time 2026-04-29 16:38
Airport Juan Santamaría International Airport (MROC)

Arrival

Time N/A
Airport Miami International Airport (KMIA)
Time Latitude Longitude Altitude Speed Heading
2026-04-29 16:13 9.99648 -84.20973 3032 ft 0 kts 340°
2026-04-29 16:22 9.99626 -84.20964 3032 ft 5 kts 336°
2026-04-29 16:22 9.99601 -84.20954 3031 ft 2 kts 15°
2026-04-29 16:22 9.99587 -84.20961 3032 ft 3 kts 48°
2026-04-29 16:23 9.99573 -84.20981 3032 ft 3 kts 60°
2026-04-29 16:23 9.99566 -84.20995 3027 ft 2 kts 66°
2026-04-29 16:23 9.99562 -84.21006 3027 ft 2 kts 69°
2026-04-29 16:23 9.99561 -84.21009 3031 ft 0 kts 70°
2026-04-29 16:25 9.99562 -84.20997 3028 ft 7 kts 85°
2026-04-29 16:26 9.99517 -84.20945 3032 ft 10 kts 160°
2026-04-29 16:26 9.99477 -84.20952 3034 ft 7 kts 214°
2026-04-29 16:26 9.99429 -84.21040 3023 ft 21 kts 249°
2026-04-29 16:26 9.99362 -84.21216 3007 ft 29 kts 248°
2026-04-29 16:27 9.99285 -84.21424 2993 ft 34 kts 250°
2026-04-29 16:27 9.99198 -84.21667 2975 ft 39 kts 250°
2026-04-29 16:27 9.99102 -84.21913 2948 ft 34 kts 251°
2026-04-29 16:27 9.99086 -84.22122 2951 ft 26 kts 250°
2026-04-29 16:28 9.99023 -84.22198 2941 ft 0 kts 192°
2026-04-29 16:33 9.99021 -84.22198 2942 ft 3 kts 192°
2026-04-29 16:34 9.98966 -84.22184 2942 ft 11 kts 160°
2026-04-29 16:34 9.98923 -84.22129 2943 ft 10 kts 78°
2026-04-29 16:34 9.98925 -84.22123 2947 ft 0 kts 70°
2026-04-29 16:37 9.98948 -84.22058 2947 ft 35 kts 70°
2026-04-29 16:37 9.99107 -84.21640 2981 ft 92 kts 69°
2026-04-29 16:37 9.99284 -84.21166 3006 ft 125 kts 69°
2026-04-29 16:38 9.99794 -84.19806 3269 ft 172 kts 70°
2026-04-29 16:38 10.00285 -84.18710 4202 ft 170 kts 53°
2026-04-29 16:38 10.01288 -84.18139 5087 ft 173 kts 11°
2026-04-29 16:38 10.02564 -84.18397 5477 ft 210 kts 332°
2026-04-29 16:39 10.03758 -84.19418 5890 ft 237 kts 317°
2026-04-29 16:39 10.04913 -84.20673 6618 ft 249 kts 313°
2026-04-29 16:39 10.05813 -84.22229 7340 ft 265 kts 295°
2026-04-29 16:39 10.06503 -84.24036 7853 ft 285 kts 292°
2026-04-29 16:40 10.07171 -84.25960 8421 ft 299 kts 291°
2026-04-29 16:40 10.07880 -84.27961 9271 ft 302 kts 290°
2026-04-29 16:40 10.08602 -84.29962 10206 ft 303 kts 291°
2026-04-29 16:40 10.09556 -84.31921 10640 ft 321 kts 307°
2026-04-29 16:41 10.11223 -84.33515 10949 ft 339 kts 322°
2026-04-29 16:41 10.13237 -84.34826 11462 ft 349 kts 336°
2026-04-29 16:41 10.15598 -84.35425 12123 ft 353 kts 356°
2026-04-29 16:41 10.18072 -84.35432 12850 ft 357 kts
2026-04-29 16:42 10.20567 -84.35136 13521 ft 363 kts
2026-04-29 16:42 10.23023 -84.34669 14169 ft 366 kts 12°
2026-04-29 16:42 10.25536 -84.34119 14790 ft 370 kts 12°
2026-04-29 16:42 10.28068 -84.33557 15406 ft 373 kts 12°
2026-04-29 16:43 10.30616 -84.33012 16039 ft 377 kts 11°
2026-04-29 16:43 10.33201 -84.32485 16626 ft 380 kts 11°
2026-04-29 16:43 10.35811 -84.31974 17279 ft 383 kts 11°
2026-04-29 16:43 10.38450 -84.31471 17854 ft 387 kts 10°
2026-04-29 16:44 10.41109 -84.30972 18444 ft 390 kts 10°
2026-04-29 16:44 10.43806 -84.30470 18881 ft 396 kts
2026-04-29 16:44 10.46534 -84.29963 19347 ft 401 kts
2026-04-29 16:44 10.49293 -84.29448 19806 ft 405 kts
2026-04-29 16:45 10.52083 -84.28926 20315 ft 408 kts
2026-04-29 16:45 10.54897 -84.28399 20747 ft 413 kts
2026-04-29 16:45 10.57739 -84.27866 21216 ft 417 kts
2026-04-29 16:45 10.60609 -84.27327 21682 ft 422 kts
2026-04-29 16:46 10.63511 -84.26782 22132 ft 426 kts
2026-04-29 16:46 10.66440 -84.26232 22587 ft 430 kts
2026-04-29 16:46 10.69357 -84.25685 23033 ft 434 kts
2026-04-29 16:46 10.72342 -84.25125 23482 ft 438 kts
2026-04-29 16:47 10.75356 -84.24559 23855 ft 442 kts
2026-04-29 16:47 10.78392 -84.23988 24239 ft 445 kts
2026-04-29 16:47 10.81452 -84.23413 24622 ft 448 kts
2026-04-29 16:47 10.84535 -84.22834 24994 ft 452 kts
2026-04-29 16:48 10.87641 -84.22249 25373 ft 455 kts
2026-04-29 16:48 10.90762 -84.21662 25748 ft 458 kts
2026-04-29 16:48 10.93909 -84.21069 26136 ft 461 kts
2026-04-29 16:48 10.97076 -84.20473 26492 ft 464 kts
2026-04-29 16:49 11.00259 -84.19874 26847 ft 467 kts
2026-04-29 16:49 11.03478 -84.19268 27210 ft 470 kts
2026-04-29 16:49 11.06705 -84.18661 27583 ft 473 kts
2026-04-29 16:49 11.09951 -84.18049 27940 ft 477 kts
2026-04-29 16:50 11.13182 -84.17440 28296 ft 479 kts
2026-04-29 16:50 11.16472 -84.16820 28645 ft 483 kts
2026-04-29 16:50 11.19786 -84.16195 28986 ft 486 kts
2026-04-29 16:50 11.23121 -84.15566 29307 ft 489 kts
2026-04-29 16:51 11.26474 -84.14933 29669 ft 491 kts
2026-04-29 16:51 11.29860 -84.14294 30023 ft 494 kts
2026-04-29 16:51 11.33250 -84.13654 30321 ft 497 kts
2026-04-29 16:51 11.36655 -84.13011 30619 ft 498 kts
2026-04-29 16:52 11.40073 -84.12365 30952 ft 500 kts
2026-04-29 16:52 11.43499 -84.11718 31295 ft 501 kts
2026-04-29 16:52 11.46933 -84.11069 31591 ft 503 kts
2026-04-29 16:52 11.50382 -84.10417 31898 ft 505 kts
2026-04-29 16:53 11.53799 -84.09771 32200 ft 506 kts
2026-04-29 16:53 11.57268 -84.09115 32608 ft 505 kts
2026-04-29 16:53 11.60718 -84.08461 33092 ft 502 kts
2026-04-29 16:53 11.64153 -84.07811 33545 ft 501 kts
2026-04-29 16:54 11.67578 -84.07162 33943 ft 500 kts
2026-04-29 16:54 11.70993 -84.06516 34318 ft 499 kts
2026-04-29 16:54 11.74399 -84.05871 34674 ft 497 kts
2026-04-29 16:54 11.77795 -84.05228 35044 ft 496 kts
2026-04-29 16:55 11.81182 -84.04587 35396 ft 494 kts
2026-04-29 16:55 11.84564 -84.03946 35768 ft 493 kts
2026-04-29 16:55 11.87940 -84.03307 36113 ft 492 kts
2026-04-29 16:55 11.91301 -84.02670 36439 ft 491 kts
2026-04-29 16:56 11.94625 -84.02040 36758 ft 490 kts
2026-04-29 16:56 11.97975 -84.01405 37086 ft 489 kts
2026-04-29 16:56 12.01330 -84.00769 37361 ft 489 kts
2026-04-29 16:56 12.04680 -84.00133 37642 ft 489 kts
2026-04-29 16:57 12.08020 -83.99500 37965 ft 488 kts
2026-04-29 16:57 12.11355 -83.98866 38258 ft 487 kts
2026-04-29 16:57 12.14685 -83.98234 38551 ft 486 kts
2026-04-29 16:57 12.18007 -83.97603 38810 ft 485 kts
2026-04-29 16:58 12.21325 -83.96972 39065 ft 484 kts
2026-04-29 16:58 12.24631 -83.96344 39313 ft 483 kts
2026-04-29 16:58 12.27889 -83.95725 39541 ft 481 kts
2026-04-29 16:58 12.31184 -83.95098 39782 ft 480 kts
2026-04-29 16:59 12.34472 -83.94473 40026 ft 480 kts
2026-04-29 16:59 12.37757 -83.93848 40241 ft 478 kts
2026-04-29 16:59 12.41030 -83.93226 40469 ft 477 kts
2026-04-29 16:59 12.44295 -83.92605 40690 ft 476 kts
2026-04-29 17:00 12.47553 -83.91984 40891 ft 476 kts
2026-04-29 17:00 12.50812 -83.91364 40945 ft 479 kts
2026-04-29 17:00 12.57385 -83.90115 40948 ft 486 kts
2026-04-29 17:01 12.64052 -83.88844 40947 ft 486 kts
2026-04-29 17:01 12.70694 -83.87576 40954 ft 485 kts
2026-04-29 17:02 12.77292 -83.86317 40946 ft 484 kts
2026-04-29 17:02 12.83915 -83.85053 40948 ft 484 kts
2026-04-29 17:03 12.90542 -83.83787 40944 ft 484 kts
2026-04-29 17:03 12.97164 -83.82522 40944 ft 484 kts
2026-04-29 17:04 13.03796 -83.81254 40939 ft 484 kts
2026-04-29 17:04 13.10415 -83.79988 40938 ft 483 kts
2026-04-29 17:05 13.16978 -83.78732 40936 ft 482 kts
2026-04-29 17:05 13.23584 -83.77467 40936 ft 482 kts
2026-04-29 17:06 13.30193 -83.76201 40933 ft 482 kts
2026-04-29 17:06 13.36800 -83.74934 40935 ft 482 kts
2026-04-29 17:07 13.42288 -83.73882 40936 ft 482 kts
2026-04-29 17:07 13.49953 -83.72410 40931 ft 481 kts
2026-04-29 17:08 13.56531 -83.71147 40925 ft 480 kts
2026-04-29 17:08 13.63104 -83.69884 40925 ft 480 kts
2026-04-29 17:09 13.69682 -83.68620 40926 ft 480 kts
2026-04-29 17:09 13.76253 -83.67356 40923 ft 480 kts
2026-04-29 17:10 13.82831 -83.66090 40927 ft 480 kts
2026-04-29 17:10 13.89355 -83.64833 40923 ft 479 kts
2026-04-29 17:11 13.95909 -83.63570 40920 ft 479 kts
2026-04-29 17:11 14.02461 -83.62307 40926 ft 479 kts
2026-04-29 17:12 14.07955 -83.61247 40928 ft 479 kts
2026-04-29 17:12 14.13411 -83.60195 40931 ft 480 kts
2026-04-29 17:13 14.21036 -83.58722 40924 ft 478 kts
2026-04-29 17:13 14.27570 -83.57459 40931 ft 478 kts
2026-04-29 17:14 14.34114 -83.56194 40931 ft 478 kts
2026-04-29 17:14 14.40656 -83.54929 40937 ft 478 kts
2026-04-29 17:15 14.47158 -83.53670 40940 ft 478 kts
2026-04-29 17:15 14.53704 -83.52402 40939 ft 479 kts
2026-04-29 17:16 14.60265 -83.51131 40940 ft 479 kts
2026-04-29 17:16 14.66824 -83.49859 40940 ft 479 kts
2026-04-29 17:17 14.73381 -83.48587 40939 ft 479 kts
2026-04-29 17:17 14.79903 -83.47320 40942 ft 479 kts
2026-04-29 17:18 14.86473 -83.46044 40947 ft 479 kts
2026-04-29 17:18 14.93014 -83.44772 40957 ft 478 kts
2026-04-29 17:19 14.99560 -83.43498 40958 ft 478 kts
2026-04-29 17:19 15.06104 -83.42225 40956 ft 478 kts
2026-04-29 17:20 15.12604 -83.40959 40966 ft 478 kts
2026-04-29 17:20 15.19141 -83.39685 40972 ft 478 kts
2026-04-29 17:21 15.25683 -83.38409 40965 ft 477 kts
2026-04-29 17:21 15.32210 -83.37135 40969 ft 477 kts
2026-04-29 17:22 15.38730 -83.35862 40969 ft 477 kts
2026-04-29 17:22 15.45218 -83.34595 40974 ft 477 kts
2026-04-29 17:23 15.51743 -83.33319 40974 ft 477 kts
2026-04-29 17:23 15.58263 -83.32044 40976 ft 476 kts
2026-04-29 17:24 15.64762 -83.30771 40975 ft 475 kts
2026-04-29 17:24 15.71262 -83.29498 40974 ft 475 kts
2026-04-29 17:25 15.77764 -83.28224 40974 ft 475 kts
2026-04-29 17:25 15.84221 -83.26957 40976 ft 475 kts
2026-04-29 17:26 15.90717 -83.25683 40981 ft 475 kts
2026-04-29 17:26 15.97197 -83.24410 40978 ft 473 kts
2026-04-29 17:27 16.03658 -83.23140 40977 ft 472 kts
2026-04-29 17:27 16.10116 -83.21870 40981 ft 472 kts
2026-04-29 17:28 16.16582 -83.20598 40977 ft 472 kts
2026-04-29 17:28 16.23040 -83.19326 40976 ft 472 kts
2026-04-29 17:29 16.29489 -83.18055 40984 ft 471 kts
2026-04-29 17:29 16.34850 -83.16998 40984 ft 471 kts
2026-04-29 17:30 16.42340 -83.15520 40970 ft 471 kts
2026-04-29 17:30 16.48789 -83.14248 40986 ft 472 kts
2026-04-29 17:31 16.55257 -83.12970 40977 ft 473 kts
2026-04-29 17:31 16.61677 -83.11700 40979 ft 472 kts
2026-04-29 17:32 16.68126 -83.10424 40986 ft 471 kts
2026-04-29 17:32 16.74567 -83.09148 40976 ft 471 kts
2026-04-29 17:33 16.81013 -83.07872 40985 ft 471 kts
2026-04-29 17:33 16.87453 -83.06595 40986 ft 471 kts
2026-04-29 17:34 16.93899 -83.05316 40992 ft 471 kts
2026-04-29 17:34 17.00336 -83.04038 40982 ft 470 kts
2026-04-29 17:35 17.09967 -83.02124 40987 ft 469 kts
2026-04-29 17:36 17.16347 -83.00855 40991 ft 469 kts
2026-04-29 17:36 17.22764 -82.99578 40986 ft 469 kts
2026-04-29 17:37 17.29178 -82.98301 40994 ft 469 kts
2026-04-29 17:37 17.35590 -82.97022 40989 ft 467 kts
2026-04-29 17:38 17.41969 -82.95750 40989 ft 467 kts
2026-04-29 17:38 17.48361 -82.94475 40987 ft 467 kts
2026-04-29 17:39 17.54708 -82.93207 40986 ft 467 kts
2026-04-29 17:39 17.61105 -82.91929 40987 ft 467 kts
2026-04-29 17:40 17.67478 -82.90654 40993 ft 465 kts
2026-04-29 17:40 17.73802 -82.89388 40991 ft 464 kts
2026-04-29 17:41 17.80157 -82.88115 40992 ft 464 kts
2026-04-29 17:41 17.86501 -82.86844 40993 ft 464 kts
2026-04-29 17:42 17.92867 -82.85567 40997 ft 464 kts
2026-04-29 17:42 17.99222 -82.84291 40996 ft 464 kts
2026-04-29 17:43 18.05535 -82.83023 40995 ft 464 kts
2026-04-29 17:43 18.11890 -82.81745 40996 ft 464 kts
2026-04-29 17:44 18.18230 -82.80470 40996 ft 464 kts
2026-04-29 17:44 18.24627 -82.79183 40995 ft 471 kts
2026-04-29 17:45 18.31120 -82.77876 40993 ft 477 kts
2026-04-29 17:45 18.37643 -82.76560 40994 ft 477 kts
2026-04-29 17:46 18.44154 -82.75245 41000 ft 476 kts
2026-04-29 17:46 18.50670 -82.73928 40998 ft 476 kts
2026-04-29 17:47 18.57145 -82.72619 40995 ft 476 kts
2026-04-29 17:47 18.63658 -82.71302 40996 ft 476 kts
2026-04-29 17:48 18.70157 -82.69987 40995 ft 475 kts
2026-04-29 17:48 18.76645 -82.68672 40995 ft 474 kts
2026-04-29 17:49 18.83129 -82.67358 40996 ft 474 kts
2026-04-29 17:49 18.89569 -82.66051 40999 ft 474 kts
2026-04-29 17:50 18.96050 -82.64735 40998 ft 474 kts
2026-04-29 17:50 19.02537 -82.63417 41001 ft 473 kts
2026-04-29 17:51 19.08997 -82.62103 41005 ft 473 kts
2026-04-29 17:51 19.15461 -82.60787 40999 ft 473 kts
2026-04-29 17:52 19.21897 -82.59476 41002 ft 473 kts
2026-04-29 17:52 19.28375 -82.58156 41003 ft 473 kts
2026-04-29 17:53 19.34803 -82.56844 40998 ft 473 kts
2026-04-29 17:53 19.41274 -82.55523 41004 ft 473 kts
2026-04-29 17:54 19.47753 -82.54199 40999 ft 473 kts
2026-04-29 17:54 19.54217 -82.52877 41002 ft 473 kts
2026-04-29 17:55 19.60700 -82.51550 41002 ft 473 kts
2026-04-29 17:55 19.67134 -82.50231 41003 ft 474 kts
2026-04-29 17:56 19.73607 -82.48904 41004 ft 474 kts
2026-04-29 17:56 19.80089 -82.47574 41008 ft 474 kts
2026-04-29 17:57 19.86573 -82.46243 41003 ft 474 kts
2026-04-29 17:57 19.93060 -82.44909 41009 ft 474 kts
2026-04-29 17:58 19.99538 -82.43577 40997 ft 474 kts
2026-04-29 17:58 20.05976 -82.42251 41019 ft 474 kts
2026-04-29 17:59 20.12429 -82.40759 41004 ft 476 kts 12°
2026-04-29 17:59 20.18809 -82.38836 41011 ft 477 kts 13°
2026-04-29 18:00 20.24101 -82.37165 41009 ft 477 kts 13°
2026-04-29 18:00 20.30472 -82.35187 41010 ft 477 kts 13°
2026-04-29 18:01 20.36861 -82.33240 41016 ft 477 kts 13°
2026-04-29 18:01 20.43253 -82.31303 41012 ft 478 kts 13°
2026-04-29 18:02 20.49661 -82.29367 41015 ft 478 kts 12°
2026-04-29 18:02 20.56062 -82.27452 41015 ft 478 kts 12°
2026-04-29 18:03 20.62435 -82.25548 41018 ft 478 kts 12°
2026-04-29 18:03 20.68843 -82.23631 41018 ft 479 kts 12°
2026-04-29 18:04 20.75282 -82.21701 41018 ft 480 kts 12°
2026-04-29 18:04 20.81673 -82.19782 41019 ft 480 kts 12°
2026-04-29 18:05 20.88104 -82.17850 41018 ft 480 kts 12°
2026-04-29 18:05 20.94540 -82.15915 41018 ft 480 kts 12°
2026-04-29 18:06 21.00975 -82.13979 41019 ft 480 kts 12°
2026-04-29 18:06 21.07412 -82.12040 41022 ft 480 kts 12°
2026-04-29 18:07 21.13817 -82.10110 41023 ft 480 kts 12°
2026-04-29 18:07 21.20250 -82.08169 41021 ft 480 kts 12°
2026-04-29 18:08 21.26692 -82.06223 41020 ft 480 kts 12°
2026-04-29 18:08 21.33125 -82.04279 41021 ft 480 kts 12°
2026-04-29 18:09 21.39558 -82.02332 41022 ft 480 kts 12°
2026-04-29 18:09 21.45956 -82.00395 41022 ft 480 kts 12°
2026-04-29 18:10 21.52426 -81.98434 41022 ft 480 kts 12°
2026-04-29 18:10 21.58820 -81.96494 41024 ft 480 kts 12°
2026-04-29 18:11 21.65250 -81.94542 41028 ft 479 kts 13°
2026-04-29 18:11 21.71663 -81.92592 41028 ft 479 kts 13°
2026-04-29 18:12 21.78076 -81.90641 41022 ft 479 kts 13°
2026-04-29 18:12 21.84495 -81.88687 41018 ft 479 kts 13°
2026-04-29 18:13 21.90913 -81.86731 41030 ft 479 kts 13°
2026-04-29 18:13 21.97322 -81.84775 41022 ft 478 kts 13°
2026-04-29 18:14 22.03667 -81.82837 41021 ft 476 kts 13°
2026-04-29 18:14 22.10040 -81.80889 41020 ft 476 kts 13°
2026-04-29 18:15 22.16416 -81.78939 41015 ft 476 kts 13°
2026-04-29 18:15 22.22797 -81.76985 41015 ft 476 kts 13°
2026-04-29 18:16 22.29170 -81.75032 41012 ft 475 kts 13°
2026-04-29 18:16 22.35510 -81.73086 41013 ft 472 kts 13°
2026-04-29 18:17 22.41801 -81.71183 41008 ft 472 kts 12°
2026-04-29 18:17 22.48149 -81.69290 41007 ft 472 kts 12°
2026-04-29 18:18 22.54483 -81.67401 41010 ft 472 kts 12°
2026-04-29 18:18 22.60810 -81.65508 41013 ft 470 kts 12°
2026-04-29 18:19 22.67096 -81.63623 41009 ft 468 kts 12°
2026-04-29 18:19 22.73377 -81.61739 41007 ft 469 kts 12°
2026-04-29 18:20 22.79674 -81.59848 41016 ft 469 kts 12°
2026-04-29 18:20 22.85966 -81.57956 41015 ft 469 kts 12°
2026-04-29 18:21 22.92213 -81.56076 41039 ft 468 kts 12°
2026-04-29 18:21 22.98465 -81.54191 41047 ft 464 kts 12°
2026-04-29 18:22 23.04694 -81.52313 41049 ft 464 kts 12°
2026-04-29 18:22 23.10914 -81.50436 41046 ft 464 kts 12°
2026-04-29 18:23 23.17140 -81.48556 41041 ft 464 kts 12°
2026-04-29 18:23 23.23330 -81.46683 41031 ft 463 kts 12°
2026-04-29 18:24 23.29524 -81.44806 41035 ft 460 kts 12°
2026-04-29 18:24 23.35692 -81.42937 41034 ft 460 kts 12°
2026-04-29 18:25 23.41823 -81.41078 41037 ft 460 kts 12°
2026-04-29 18:25 23.48002 -81.39201 41037 ft 460 kts 12°
2026-04-29 18:26 23.54162 -81.37329 41038 ft 460 kts 12°
2026-04-29 18:26 23.60310 -81.35458 41037 ft 458 kts 12°
2026-04-29 18:27 23.66446 -81.33589 41038 ft 457 kts 12°
2026-04-29 18:27 23.72576 -81.31721 40943 ft 457 kts 12°
2026-04-29 18:27 23.75624 -81.30790 40697 ft 450 kts 12°
2026-04-29 18:28 23.78617 -81.29875 40463 ft 445 kts 12°
2026-04-29 18:28 23.81559 -81.28976 40223 ft 442 kts 12°
2026-04-29 18:28 23.84515 -81.28073 40004 ft 440 kts 12°
2026-04-29 18:28 23.87451 -81.27176 39746 ft 435 kts 12°
2026-04-29 18:29 23.90361 -81.26286 39309 ft 434 kts 12°
2026-04-29 18:29 23.92283 -81.25699 38990 ft 433 kts 12°
2026-04-29 18:29 23.96167 -81.24511 38245 ft 432 kts 12°
2026-04-29 18:29 23.99058 -81.23648 37750 ft 430 kts
2026-04-29 18:30 24.01995 -81.23055 37203 ft 427 kts
2026-04-29 18:30 24.04922 -81.22426 36269 ft 433 kts 11°
2026-04-29 18:30 24.07840 -81.21468 34800 ft 443 kts 14°
2026-04-29 18:30 24.10776 -81.20395 33066 ft 457 kts 16°
2026-04-29 18:31 24.13858 -81.19240 31344 ft 466 kts 17°
2026-04-29 18:31 24.16904 -81.18092 30087 ft 467 kts 17°
2026-04-29 18:31 24.19914 -81.16954 29641 ft 448 kts 17°
2026-04-29 18:31 24.22794 -81.15865 29345 ft 428 kts 17°
2026-04-29 18:32 24.25563 -81.14820 28917 ft 414 kts 17°
2026-04-29 18:32 24.31004 -81.12774 28007 ft 412 kts 16°
2026-04-29 18:32 24.33707 -81.11756 27556 ft 408 kts 16°
2026-04-29 18:33 24.36385 -81.10747 27121 ft 405 kts 16°
2026-04-29 18:33 24.39041 -81.09746 26696 ft 401 kts 16°
2026-04-29 18:33 24.41668 -81.08755 26259 ft 398 kts 16°
2026-04-29 18:33 24.44277 -81.07771 25800 ft 395 kts 16°
2026-04-29 18:34 24.46869 -81.06793 25368 ft 392 kts 16°
2026-04-29 18:34 24.48579 -81.06147 25081 ft 390 kts 16°
2026-04-29 18:34 24.51966 -81.04867 24524 ft 387 kts 16°
2026-04-29 18:34 24.54492 -81.03913 24094 ft 384 kts 16°
2026-04-29 18:35 24.57014 -81.02959 23653 ft 382 kts 16°
2026-04-29 18:35 24.59521 -81.02011 23179 ft 379 kts 16°
2026-04-29 18:35 24.62000 -81.01073 22802 ft 374 kts 16°
2026-04-29 18:35 24.64450 -81.00145 22394 ft 369 kts 16°
2026-04-29 18:36 24.66872 -80.99229 21915 ft 367 kts 17°
2026-04-29 18:36 24.69282 -80.98316 21486 ft 364 kts 17°
2026-04-29 18:36 24.71664 -80.97413 21082 ft 361 kts 17°
2026-04-29 18:36 24.74032 -80.96515 20681 ft 358 kts 17°
2026-04-29 18:37 24.76379 -80.95625 20277 ft 356 kts 17°
2026-04-29 18:37 24.78718 -80.94738 19876 ft 355 kts 17°
2026-04-29 18:37 24.81054 -80.93851 19475 ft 354 kts 18°
2026-04-29 18:37 24.83376 -80.92970 19078 ft 353 kts 18°
2026-04-29 18:38 24.85697 -80.92088 18685 ft 351 kts 18°
2026-04-29 18:38 24.87994 -80.91215 18269 ft 350 kts 18°
2026-04-29 18:38 24.90249 -80.90269 17720 ft 352 kts 23°
2026-04-29 18:38 24.92476 -80.89102 16607 ft 355 kts 25°
2026-04-29 18:39 24.94696 -80.87867 15227 ft 360 kts 26°
2026-04-29 18:39 24.96934 -80.86594 14070 ft 359 kts 27°
2026-04-29 18:39 24.99094 -80.85355 13538 ft 338 kts 27°
2026-04-29 18:39 25.01112 -80.84194 13149 ft 320 kts 27°
2026-04-29 18:40 25.03062 -80.83071 12744 ft 314 kts 27°
2026-04-29 18:40 25.04995 -80.81958 12346 ft 312 kts 27°
2026-04-29 18:40 25.06912 -80.80852 11976 ft 310 kts 27°
2026-04-29 18:40 25.08803 -80.79762 11590 ft 310 kts 27°
2026-04-29 18:41 25.14438 -80.76508 10772 ft 291 kts 27°
2026-04-29 18:41 25.16201 -80.75489 10671 ft 279 kts 27°
2026-04-29 18:42 25.17896 -80.74509 10552 ft 270 kts 27°
2026-04-29 18:42 25.19543 -80.73556 10408 ft 263 kts 27°
2026-04-29 18:42 25.21159 -80.72622 10111 ft 262 kts 27°
2026-04-29 18:42 25.22767 -80.71691 9798 ft 261 kts 27°
2026-04-29 18:43 25.24373 -80.70760 9500 ft 260 kts 28°
2026-04-29 18:43 25.25973 -80.69834 9218 ft 259 kts 27°
2026-04-29 18:43 25.27573 -80.68907 8932 ft 258 kts 27°
2026-04-29 18:43 25.29162 -80.67987 8651 ft 258 kts 27°